Location: Northam
(31.6525°S, 116.6655°E)
Time: 23:22:40
(UTC+08:00)

Envisat - Pass Details

Date: 24 May 2021
Orbit: 764 x 766 km, 98.1° (Epoch: 14 June)

Event Time Altitude Azimuth Distance (km) Brightness Sun altitude
Rises 18:03:06 0° 176° (S) 3,264 6.0 -9.3°
Reaches altitude 10° 18:05:30 10° 181° (S) 2,330 5.3 -9.8°
Maximum altitude 18:10:24 47° 253° (WSW) 1,024 4.1 -10.8°
Drops below altitude 10° 18:15:14 10° 326° (NW) 2,303 6.3 -11.8°
Sets 18:17:36 0° 332° (NNW) 3,221 7.0 -12.3°
